CW8593 Weather Reports


Display with metric or nautical units.
time (UTC)temp
F
wind
direction
speed
MPH
gust
MPH
rain 1hr
in
rain 24hr
in
rain mn
in
humidity
%
barometer
mb
20160701004220 71 70 0.0 2.0 0.00 0.00 0.00 83 1016.4
20160701003220 71 70 0.0 1.0 0.00 0.00 0.00 82 1016.4
20160701002221 72 70 0.0 2.0 0.00 0.00 0.00 83 1016.4
20160701001720 72 70 0.0 0.0 0.00 0.00 0.00 83 1016.4
20160630235720 72 70 0.0 0.0 0.00 0.00 0.00 82 1016.5
20160630235220 72 70 0.0 1.0 0.00 0.00 0.00 83 1016.7
20160630234220 71 70 0.0 3.0 0.00 0.00 0.00 82 1016.7
20160630233721 71 70 0.0 3.0 0.00 0.00 0.00 83 1016.7
20160630231720 72 70 0.0 2.0 0.00 0.00 0.00 83 1016.6
20160630230721 72 70 0.0 1.0 0.00 0.00 0.00 82 1016.7
20160630230221 72 69 0.0 0.0 0.00 0.00 0.00 83 1016.7
20160630225720 72 70 0.0 1.0 0.00 0.00 0.00 83 1016.7
20160630224721 72 69 0.0 0.0 0.00 0.00 0.00 83 1016.8
20160630224220 72 70 0.0 2.0 0.00 0.00 0.00 83 1016.8
20160630223720 72 69 1.0 3.0 0.00 0.00 0.00 82 1016.8
20160630223221 73 69 1.0 3.0 0.00 0.00 0.00 82 1016.9
20160630222720 73 69 0.0 1.0 0.00 0.00 0.00 82 1016.8
20160630221220 73 69 0.0 0.0 0.00 0.00 0.00 82 1016.7
20160630215221 73 69 0.0 1.0 0.00 0.00 0.00 82 1016.8
20160630214720 73 69 1.0 2.0 0.00 0.00 0.00 82 1016.8
20160630214221 73 69 1.0 3.0 0.00 0.00 0.00 81 1016.9
20160630213220 73 69 0.0 2.0 0.00 0.00 0.00 82 1016.8
20160630212221 74 69 0.0 2.0 0.00 0.00 0.00 81 1016.8
20160630211721 74 69 0.0 1.0 0.00 0.00 0.00 81 1016.8
20160630211221 74 69 0.0 1.0 0.00 0.00 0.00 82 1016.8
20160630205721 74 69 0.0 3.0 0.00 0.00 0.00 81 1017.0
20160630205220 74 69 1.0 3.0 0.00 0.00 0.00 81 1016.9
20160630204720 74 69 1.0 2.0 0.00 0.00 0.00 80 1016.9
20160630204221 75 69 0.0 2.0 0.00 0.00 0.00 80 1017.0
20160630203221 75 69 0.0 1.0 0.00 0.00 0.00 80 1016.8
20160630201721 75 69 2.0 5.0 0.00 0.00 0.00 80 1016.9
20160630200721 75 109 0.0 3.0 0.00 0.00 0.00 80 1016.5
20160630200220 75 113 2.0 3.0 0.00 0.00 0.00 80 1016.5
20160630194222 74 112 1.0 3.0 0.00 0.00 0.00 80 1016.5
20160630193722 74 111 0.0 3.0 0.00 0.00 0.00 80 1016.3
20160630192222 75 152 1.0 2.0 0.00 0.00 0.00 80 1016.3
20160630191222 75 152 0.0 3.0 0.00 0.00 0.00 80 1016.2
20160630190723 75 152 1.0 3.0 0.00 0.00 0.00 80 1016.1
20160630185720 75 152 2.0 5.0 0.00 0.00 0.00 79 1016.1
20160630185220 75 150 0.0 3.0 0.00 0.00 0.00 79 1015.9
20160630183724 75 150 2.0 5.0 0.00 0.00 0.00 78 1015.9
20160630181720 76 136 3.0 6.0 0.00 0.00 0.00 76 1015.1
20160630181222 76 181 3.0 5.0 0.00 0.00 0.00 76 1015.1
20160630180722 76 180 5.0 6.0 0.00 0.00 0.00 76 1015.1
20160630180225 76 167 2.0 6.0 0.00 0.00 0.00 75 1015.1
20160630175723 77 119 3.0 6.0 0.00 0.00 0.00 74 1015.1
20160630175221 77 144 2.0 6.0 0.00 0.00 0.00 74 1015.1
20160630173222 77 164 3.0 7.0 0.00 0.00 0.00 74 1015.0
20160630172725 77 137 3.0 7.0 0.00 0.00 0.00 74 1015.0
20160630172223 77 168 4.0 7.0 0.00 0.00 0.00 72 1015.0
20160630171722 77 152 5.0 8.0 0.00 0.00 0.00 73 1015.0
20160630165722 78 141 3.0 10.0 0.00 0.00 0.00 70 1014.9
20160630164724 78 168 2.0 7.0 0.00 0.00 0.00 70 1014.9
20160630163220 78 157 3.0 9.0 0.00 0.00 0.00 69 1015.0
20160630162223 78 116 6.0 9.0 0.00 0.00 0.00 69 1015.3
20160630161722 78 137 5.0 9.0 0.00 0.00 0.00 69 1015.3
20160630154723 79 142 5.0 12.0 0.00 0.00 0.00 66 1015.3
20160630153722 79 143 5.0 9.0 0.00 0.00 0.00 63 1015.3
20160630153222 79 111 2.0 8.0 0.00 0.00 0.00 62 1015.3
20160630152223 78 150 4.0 8.0 0.00 0.00 0.00 65 1015.3
20160630151725 79 159 3.0 8.0 0.00 0.00 0.00 65 1015.2
20160630145222 79 133 3.0 10.0 0.00 0.00 0.00 65 1015.4
20160630144223 79 93 5.0 10.0 0.00 0.00 0.00 67 1015.4
20160630143720 79 104 3.0 8.0 0.00 0.00 0.00 68 1015.4
20160630133728 79 159 6.0 10.0 0.00 0.00 0.00 65 1016.1
20160630133234 79 157 3.0 7.0 0.00 0.00 0.00 65 1016.1
20160630132720 79 164 6.0 12.0 0.00 0.00 0.00 65 1016.1
20160630130725 79 130 5.0 10.0 0.00 0.00 0.00 64 1016.1
20160630124719 79 154 6.0 12.0 0.00 0.00 0.00 65 1016.1
20160630123219 79 112 6.0 12.0 0.00 0.00 0.00 66 1016.2
20160630122220 79 143 7.0 12.0 0.00 0.00 0.00 66 1016.2
20160630121733 79 149 7.0 12.0 0.00 0.00 0.00 63 1016.2
20160630115231 79 135 6.0 10.0 0.00 0.00 0.00 64 1016.3
20160630114233 79 121 6.0 10.0 0.00 0.00 0.00 64 1016.3
20160630112720 79 132 6.0 10.0 0.00 0.00 0.00 63 1016.3
20160630110731 79 120 5.0 10.0 0.00 0.00 0.00 63 1016.3
20160630110221 80 108 5.0 12.0 0.00 0.00 0.00 62 1016.3
20160630103220 80 93 5.0 14.0 0.00 0.00 0.00 63 1016.3
20160630101219 80 114 6.0 10.0 0.00 0.00 0.00 62 1016.2
20160630100720 79 100 7.0 12.0 0.00 0.00 0.00 64 1016.2
20160630093219 79 75 2.0 10.0 0.00 0.00 0.00 66 1016.1
20160630092219 79 111 3.0 8.0 0.00 0.00 0.00 67 1016.0
20160630091219 79 85 5.0 9.0 0.00 0.00 0.00 68 1016.0
20160630090720 79 74 5.0 10.0 0.00 0.00 0.00 68 1016.0
20160630085727 79 113 7.0 10.0 0.00 0.00 0.00 67 1016.0
20160630084732 78 55 2.0 7.0 0.00 0.00 0.00 68 1016.0
20160630084219 79 75 4.0 10.0 0.00 0.00 0.00 68 1016.0
20160630083719 79 76 5.0 10.0 0.00 0.00 0.00 68 1016.0
20160630083220 78 80 4.0 9.0 0.00 0.00 0.00 68 1016.0
20160630082722 79 97 6.0 9.0 0.00 0.00 0.00 68 1016.0
20160630081724 79 115 6.0 9.0 0.00 0.00 0.00 67 1015.8
20160630081219 79 100 1.0 8.0 0.00 0.00 0.00 67 1015.8
20160630075720 79 140 4.0 10.0 0.00 0.00 0.00 66 1015.9
20160630075220 79 76 2.0 5.0 0.00 0.00 0.00 66 1015.9
20160630073719 78 92 2.0 6.0 0.00 0.00 0.00 68 1015.9
20160630071720 76 71 2.0 5.0 0.00 0.00 0.00 72 1015.7
20160630071224 76 49 2.0 5.0 0.00 0.00 0.00 73 1015.7
20160630070220 76 54 2.0 6.0 0.00 0.00 0.00 74 1015.6
20160630065720 76 74 1.0 8.0 0.00 0.00 0.00 73 1015.6
20160630062719 74 273 0.0 3.0 0.00 0.00 0.00 75 1015.4
20160630061719 73 273 1.0 3.0 0.00 0.00 0.00 73 1015.4
20160630061219 73 273 1.0 3.0 0.00 0.00 0.00 72 1015.3
20160630060719 73 273 1.0 3.0 0.00 0.00 0.00 72 1015.3
20160630055719 73 272 1.0 3.0 0.00 0.00 0.00 72 1015.1
20160630053719 72 271 0.0 1.0 0.00 0.00 0.00 71 1014.9
20160630053219 72 271 0.0 1.0 0.00 0.00 0.00 71 1014.9
20160630051720 72 271 0.0 0.0 0.00 0.00 0.00 71 1014.7
20160630051219 72 271 0.0 0.0 0.00 0.00 0.00 71 1014.6
20160630050219 72 271 0.0 1.0 0.00 0.00 0.00 71 1014.4
20160630045719 72 271 0.0 1.0 0.00 0.00 0.00 71 1014.4
20160630045219 71 271 0.0 0.0 0.00 0.00 0.00 71 1014.3
20160630044722 71 271 0.0 0.0 0.00 0.00 0.00 71 1014.3
20160630043222 71 271 0.0 2.0 0.00 0.00 0.00 70 1014.3
20160630042221 72 271 0.0 1.0 0.00 0.00 0.00 69 1014.2
20160630041721 72 271 0.0 0.0 0.00 0.00 0.00 69 1014.0
20160630040721 72 271 0.0 2.0 0.00 0.00 0.00 69 1014.0
20160630035219 72 271 0.0 0.0 0.00 0.00 0.00 68 1013.8
20160630034719 72 271 0.0 1.0 0.00 0.00 0.00 68 1013.8
20160630034219 72 271 2.0 3.0 0.00 0.00 0.00 68 1013.7
20160630033720 72 271 0.0 3.0 0.00 0.00 0.00 68 1013.7
20160630033220 72 271 1.0 3.0 0.00 0.00 0.00 68 1013.7
20160630032720 72 271 1.0 3.0 0.00 0.00 0.00 68 1013.5
20160630032219 72 271 2.0 3.0 0.00 0.00 0.00 67 1013.5
20160630030719 72 271 0.0 2.0 0.00 0.00 0.00 67 1013.3
20160630030220 72 271 0.0 1.0 0.00 0.00 0.00 67 1013.4
20160630025720 73 271 0.0 1.0 0.00 0.00 0.00 67 1013.5
20160630025219 73 271 0.0 1.0 0.00 0.00 0.00 66 1013.3
20160630024219 74 271 0.0 0.0 0.00 0.00 0.00 65 1013.2
20160630023219 73 270 1.0 5.0 0.00 0.00 0.00 66 1013.1
20160630022220 73 195 0.0 1.0 0.00 0.00 0.00 67 1013.1
20160630020719 73 195 0.0 1.0 0.00 0.00 0.00 67 1013.3
20160630020219 73 195 0.0 2.0 0.00 0.00 0.00 67 1013.3
20160630015719 73 194 0.0 0.0 0.00 0.00 0.00 67 1013.4
20160630015219 73 194 0.0 0.0 0.00 0.00 0.00 67 1013.4
20160630014719 73 194 0.0 0.0 0.00 0.00 0.00 67 1013.4
20160630014220 73 194 0.0 0.0 0.00 0.00 0.00 66 1013.9
20160630013719 73 194 0.0 0.0 0.00 0.00 0.00 66 1013.9
20160630012719 74 194 0.0 1.0 0.00 0.00 0.00 66 1013.9
20160630011220 74 194 0.0 0.0 0.00 0.00 0.00 66 1013.9
20160630010719 74 194 0.0 1.0 0.00 0.00 0.00 66 1014.0
20160630005719 74 194 0.0 1.0 0.00 0.00 0.00 66 1014.0